Regional Weather Roundup
Issued by NWS Charleston, WV

Home | Current Version | Previous Version | Text Only | Print | Product List | Glossary Off
Versions: 1 2 3 4 5 6 7 8 9 10 11 12 13 14 15 16 17 18 19 20 21 22 23 24 25 26 27 28 29 30 31 32 33 34 35 36 37 38 39 40 41 42 43 44 45 46 47 48 49 50

278
ASUS41 KRLX 231610
RWRRLX
West Virginia Regional Weather Roundup
National Weather Service Charleston WV
1200 PM EDT MON MAY 23 2016

Note: "fair" indicates few or no clouds below 12,000 feet with no
significant weather and/or obstructions to visibility.

WVZ003-231700-
Northern Panhandle of West Virginia

CITY           SKY/WX    TMP DP  RH WIND       PRES   REMARKS
WHEELING         N/A     69  54  58 VRB6      30.07S
$$

WVZ009-231700-
Northwest West Virginia

CITY           SKY/WX    TMP DP  RH WIND       PRES   REMARKS
PARKERSBURG      N/A     69  52  54 CALM      30.10S
$$

WVZ006-231700-
Western West Virginia

CITY           SKY/WX    TMP DP  RH WIND       PRES   REMARKS
HUNTINGTON       N/A     68  52  56 VRB5      30.08S
$$

WVZ015-231700-
West Central West Virginia

CITY           SKY/WX    TMP DP  RH WIND       PRES   REMARKS
CHARLESTON     PTSUNNY   59  53  80 SW6       30.09S
$$

WVZ022-031-231700-
North Central West Virginia

CITY           SKY/WX    TMP DP  RH WIND       PRES   REMARKS
CLARKSBURG       N/A     66  53  63 VRB5      30.06S
MORGANTOWN       N/A     64  51  62 VRB3      30.07S
$$

WVZ025-035-042-045-231700-
Southern West Virginia

CITY           SKY/WX    TMP DP  RH WIND       PRES   REMARKS
BECKLEY        CLOUDY    57  48  72 VRB7      30.09S
LOGAN            N/A     63  54  72 CALM      30.08F
BLUEFIELD      CLOUDY    53  48  83 W7        30.10S
LEWISBURG      CLOUDY    58  45  62 CALM      30.06S
$$

WVZ047-231700-
Northern Mountains of West Virginia

CITY           SKY/WX    TMP DP  RH WIND       PRES   REMARKS
ELKINS         PTSUNNY   63  51  65 W7        30.07S
$$

WVZ052-231700-
Eastern Panhandle of West Virginia

CITY           SKY/WX    TMP DP  RH WIND       PRES   REMARKS
MARTINSBURG      N/A     69  55  60 N6        29.98S
PETERSBURG       N/A     65  57  75 SE5       30.03F
$$




USA.gov is the U.S. government's official web portal to all federal, state and local government web resources and services.